Simultaneous Nadir Overpasses (SNOs) Predictions

Prediction of SNOs between METOP-B and TERRA Satellite Orbit:

Table of predicted SNOs for the next 14.0 days since TLE Epoch: 2/17/2024
Index Date (METOP-B) Time (METOP-B) Lat,Lon (METOP-B) SZA (METOP-B ) Date (TERRA) Time (TERRA) Lat,Lon (TERRA) SZA (TERRA ) Distance(km) Time Diff (sec)
1 02/18/2024 23:46:01 -80.37, 27.92 87.53 02/18/2024 23:46:56 -80.37, 27.87 87.52 1.05 55
2 02/19/2024 00:36:37 80.48,-163.36 92.65 02/19/2024 00:36:13 80.48,-163.41 92.64 1.02 24
3 02/21/2024 15:07:00 80.43, -21.70 91.63 02/21/2024 15:07:27 80.43, -21.76 91.63 1.20 27
4 02/21/2024 15:57:38 -80.51, 146.75 88.24 02/21/2024 15:56:47 -80.51, 146.72 88.26 0.41 51
5 02/24/2024 06:28:03 -80.40, -72.29 89.38 02/24/2024 06:28:02 -80.40, -72.14 89.37 2.80 1
6 02/26/2024 20:58:26 -80.33, 69.28 90.45 02/26/2024 20:59:15 -80.34, 69.41 90.43 2.59 49
7 02/26/2024 21:49:02 80.44,-122.08 89.72 02/26/2024 21:48:32 80.44,-121.95 89.72 2.35 30
8 02/29/2024 12:19:22 80.41, 20.03 88.70 02/29/2024 12:19:42 80.41, 19.97 88.70 1.16 20



Historial Predications of SNOs between METOP-B and TERRA
